Skip Page Navigation
NASA JPL Caltech
NASA Logo - Jet Propulsion Laboratory + View the NASA Portal
+ Center for Near-Earth Object Studies
JPL Home Earth Solar System Stars & Galaxies Technology
JPL Solar System Dynamics
BODIES ORBITS EPHEMERIDES TOOLS PHYSICAL DATA DISCOVERY FAQ SITE MAP
JPL Small-Body Database Browser
Search: [ help ]  
193721 (2001 FN107)
Classification: Main-belt Asteroid          SPK-ID: 2193721
Ephemeris | Orbit Diagram | Orbital Elements | Mission Design | Physical Parameters | Discovery Circumstances ]

[ show orbit diagram ]
Orbital Elements at Epoch 2459000.5 (2020-May-31.0) TDB
Reference: JPL 15 (heliocentric ecliptic J2000)
 Element Value Uncertainty (1-sigma)   Units 
e .03290026318330619 5.3498e-08  
a 2.717596853305055 2.3362e-08 au
q 2.628187201605193 1.3977e-07 au
i 8.84573491756418 6.5857e-06 deg
node 10.61657670190947 2.8589e-05 deg
peri 143.160690183897 9.4762e-05 deg
M 124.1028222647947 8.8792e-05 deg
tp 2458436.401258726040
(2018-Nov-13.90125873)
0.00040408 TDB
period 1636.34914301408
4.48
2.1101e-05
5.777e-08
d
yr
n .2200019485675878 2.8369e-09 deg/d
Q 2.807006505004916 2.4131e-08 au
  Orbit Determination Parameters
   # obs. used (total)      400  
   data-arc span      7080 days (19.38 yr)  
   first obs. used      1999-12-12  
   last obs. used      2019-05-01  
   planetary ephem.      DE431  
   SB-pert. ephem.      SB431-N16  
   condition code      0  
   norm. resid. RMS      .62771  
   source      ORB  
   producer      Otto Matic  
   solution date      2019-Jul-13 12:09:10  

Additional Information
 Earth MOID = 1.64019 au 
 Jupiter MOID = 2.16288 au 
 T_jup = 3.342 
[ show covariance matrix ]

Ephemeris | Orbit Diagram | Orbital Elements | Mission Design | Physical Parameters | Discovery Circumstances ]

Physical Parameter Table
Parameter Symbol Value Units Sigma Reference Notes
absolute magnitude H 15.5   n/a MPO470085  

193721 (2001 FN107)          Discovered 2001-Mar-18 by LONEOS at Anderson Mesa
Reference: 20081113/Numbers.arcLast Updated: 2008-11-17
Ephemeris | Orbit Diagram | Orbital Elements | Mission Design | Physical Parameters | Discovery Circumstances ]
ABOUT SSD CREDITS/AWARDS PRIVACY/COPYRIGHT GLOSSARY LINKS
FirstGov 2020-Jul-15 06:31 UT
(server date/time)  
NASA Home Page
Site Manager:   Ryan S. Park
Webmaster  Alan B. Chamberlin